Location: Utrecht
(52.0907°N, 5.1214°E)
Time: 09:26:20
(UTC+02:00)

MOZHAYETS 4 - Pass Details

Date: 30 June 2022
Orbit: 660 x 678 km, 98.2° (Epoch: 17 August)

Event Time Altitude Azimuth Distance (km) Brightness Sun altitude
Rises 02:28:17 0° 123° (ESE) 3,026 10.9 -14.1°
Reaches altitude 10° 02:30:54 10° 109° (ESE) 2,113 10.2 -14.0°
Maximum altitude 02:34:26 22° 59° (ENE) 1,463 10.0 -13.9°
Drops below altitude 10° 02:37:58 10° 9° (N) 2,116 11.8 -13.8°
Sets 02:40:35 0° 355° (N) 3,031 12.6 -13.7°
